Regional Weather Roundup
Issued by NWS Jackson, KY

Home | Current Version | Previous Version | Graphics & Text | Print | Product List | Glossary On
Versions: 1 2 3 4 5 6 7 8 9 10 11 12 13 14 15 16 17 18 19 20 21 22 23 24 25 26 27 28 29 30 31 32 33 34 35 36 37 38 39 40 41 42 43 44 45 46 47 48 49 50
000
ASUS43 KJKL 250510
RWRJKL

EAST KENTUCKY HOURLY WEATHER ROUNDUP
NATIONAL WEATHER SERVICE JACKSON KY
100 AM EDT SAT MAR 25 2017

NOTE: "FAIR" INDICATES FEW OR NO CLOUDS BELOW 12,000 FEET WITH
NO SIGNIFICANT WEATHER AND/OR OBSTRUCTIONS TO VISIBILITY.

* THESE REPORTS ARE NOT UNDER NWS QUALITY CONTROL AND MAY NOT
  REPORT WEATHER SUCH AS PRECIPITATION AND FOG.

KYZ079-080-083-085-087-088-110-112-115-119-120-250600
...EASTERN KENTUCKY...

CITY           SKY/WX    TMP DP  RH WIND       PRES   REMARKS
JACKSON        CLOUDY    62  48  60 VRB5      30.19F
LONDON         MOCLDY    63  45  51 S9        30.19F
SOMERSET*      CLOUDY    61  46  59 CALM      30.20S
MONTICELLO*    CLOUDY    64  48  56 SE8       30.19F
WILLIAMSBURG*  MOCLDY    63  46  55 S7        30.20F
MIDDLESBORO*   PTCLDY    63  47  57 E5        30.24S
HARLAN APT*    MOCLDY    61  45  55 CALM      30.24F
PIKE CO APT*     N/A     64  49  58 S3        30.21F
BIG SANDY APT* CLOUDY    65  49  55 S8        30.20F
MOREHEAD APT*  MOCLDY    63  48  59 SW10      30.20R
ASHLAND*       MOCLDY    55  52  88 W8        30.15R
$$

KYZ035-036-041-042-044-050-067-078-099-250600
...CENTRAL KENTUCKY...

CITY           SKY/WX    TMP DP  RH WIND       PRES   REMARKS
MT STERLING*   CLOUDY    61  50  67 SW6       30.20R
FLEMING/MASON* CLOUDY    60  49  68 SW7       30.19R
DANVILLE*      CLOUDY    61  48  63 S7        30.17F
LEXINGTON      CLOUDY    61  48  62 S6        30.17S
FRANKFORT      MOCLDY    61  48  62 CALM      30.15S
LOUISVILLE     PTCLDY    68  50  52 S10       30.13S
GLASGOW*       PTCLDY    64  49  59 S7        30.13F
BOWLING GREEN  CLOUDY    66  51  58 S8        30.12F
$$

KYZ091>093-OHZ055-061-077-WVZ005-015-034-035-042-250600
...SOUTHERN OHIO/WEST VIRGINIA...

CITY           SKY/WX    TMP DP  RH WIND       PRES   REMARKS
COVINGTON      MOCLDY    63  52  67 S7        30.14S
COLUMBUS       CLOUDY    62  52  69 S6        30.13S
DAYTON         CLOUDY    64  52  64 S14       30.11F
WILMINGTON     MOCLDY    60  52  74 SW8       30.14S
HUNTINGTON     MOCLDY    67  48  50 SW12      30.16F
CHARLESTON     CLOUDY    65  46  50 S7        30.17F
PINEVILLE*     CLOUDY    52  46  78 MISG      30.29F
BECKLEY        PTCLDY    60  45  57 SW9       30.26F
BLUEFIELD      CLOUDY    58  43  57 SW6       30.29F
LOGAN CO APT*    N/A     64  48  55 CALM      30.21F
$$

VAZ002-007-008-TNZ017-027-036-066-071-250600
...SOUTHWEST VIRGINIA/EAST TENNESSEE...

CITY           SKY/WX    TMP DP  RH WIND       PRES   REMARKS
WISE*          MOCLDY    57  45  62 S12       30.28F
JONESVILLE*      N/A     54  48  82 CALM      30.28F
ABINGDON*      CLOUDY    58  47  67 CALM      30.30F
BRISTOL        CLOUDY    54  46  74 CALM      30.28F
MORRISTOWN*    MOCLDY    59  48  67 CALM      30.24F
SEVIERVILLE*   CLEAR     57  46  67 E3        30.23F
KNOXVILLE      MOCLDY    64  45  49 CALM      30.22F
LAFOLLETTE*    PTCLDY    61  46  59 SE5       30.25F
OAK RIDGE      CLOUDY    58  47  66 CALM      30.24F
CROSSVILLE     PTCLDY    60  46  59 S8        30.23S
NASHVILLE      MOCLDY    64  51  62 S8        30.13F
$$

...KEY TO REMARKS...
VSB - VISIBILITY IN MILES
WCI - WIND CHILL INDEX
HX  - HEAT INDEX

$$



USA.gov is the U.S. government's official web portal to all federal, state and local government web resources and services.